NM5PB Weather Reports


time (UTC)temp
C
wind
direction
speed
KPH
gust
KPH
rain 1hr
cm
rain 24hr
cm
rain mn
cm
humidity
%
barometer
mb
20260505102104 6 218 0.0 0.0 0.00 0.00 0.00 63 100.7
20260505101104 6 240 0.0 0.0 0.00 0.00 0.00 64 100.8
20260505100104 7 200 0.0 0.0 0.00 0.00 0.00 60 100.8
20260505095104 7 0 0.0 0.0 0.00 0.00 0.00 59 100.9
20260505094104 7 0 0.0 0.0 0.00 0.00 0.00 56 100.9
20260505093104 8 0 0.0 0.0 0.00 0.00 0.00 54 100.9
20260505092104 8 81 0.0 0.0 0.00 0.00 0.00 53 100.9
20260505091104 8 211 0.0 0.0 0.00 0.00 0.00 52 100.8
20260505090104 8 0 0.0 0.0 0.00 0.00 0.00 52 100.9
20260505085104 8 72 0.0 0.0 0.00 0.00 0.00 51 100.8
20260505084104 8 128 0.0 0.0 0.00 0.00 0.00 51 100.8
20260505083104 8 185 0.0 1.6 0.00 0.00 0.00 51 100.7
20260505082104 8 220 3.2 4.8 0.00 0.00 0.00 50 100.6
20260505081104 9 220 0.0 0.0 0.00 0.00 0.00 50 100.7
20260505080104 9 193 0.0 1.6 0.00 0.00 0.00 50 100.8
20260505075104 9 195 1.6 3.2 0.00 0.00 0.00 49 100.8
20260505074104 9 207 1.6 1.6 0.00 0.00 0.00 50 100.7
20260505073104 9 200 1.6 1.6 0.00 0.00 0.00 49 100.7
20260505072104 10 186 1.6 3.2 0.00 0.00 0.00 49 100.6
20260505071104 10 164 1.6 3.2 0.00 0.00 0.00 49 100.7
20260505070104 10 212 1.6 3.2 0.00 0.00 0.00 49 100.6
20260505065104 10 178 1.6 3.2 0.00 0.00 0.00 50 100.6
20260505064104 10 161 3.2 4.8 0.00 0.00 0.00 50 100.6
20260505063104 10 169 1.6 3.2 0.00 0.00 0.00 49 100.5
20260505062104 10 186 1.6 3.2 0.00 0.00 0.00 49 100.6
20260505061104 10 173 1.6 4.8 0.00 0.00 0.00 48 100.6
20260505060104 10 196 1.6 4.8 0.00 0.00 0.00 49 100.6
20260505055104 11 178 1.6 3.2 0.00 0.00 0.00 49 100.6
20260505054104 11 160 1.6 3.2 0.00 0.00 0.00 49 100.6
20260505053104 11 185 1.6 3.2 0.00 0.00 0.00 50 100.6
20260505052104 11 195 3.2 6.4 0.00 0.00 0.00 50 100.6
20260505051104 11 204 0.0 3.2 0.00 0.00 0.00 49 100.6
20260505050104 11 144 1.6 3.2 0.00 0.00 0.00 50 100.5
20260505041104 12 156 1.6 3.2 0.00 0.00 0.00 49 100.5
20260505040104 12 176 1.6 3.2 0.00 0.00 0.00 49 100.5
20260505035104 13 189 3.2 4.8 0.00 0.00 0.00 48 100.5
20260505034104 13 157 1.6 3.2 0.00 0.00 0.00 47 100.4
20260505033104 14 193 1.6 1.6 0.00 0.00 0.00 45 100.4
20260505032104 14 184 1.6 4.8 0.00 0.00 0.00 44 100.4
20260505031104 14 200 1.6 3.2 0.00 0.00 0.00 44 100.4
20260505030104 14 144 0.0 1.6 0.00 0.00 0.00 44 100.4
20260505025104 14 155 0.0 1.6 0.00 0.00 0.00 43 100.4
20260505024104 14 160 1.6 1.6 0.00 0.00 0.00 43 100.4
20260505023104 15 145 1.6 3.2 0.00 0.00 0.00 43 100.4
20260505022104 15 162 0.0 1.6 0.00 0.00 0.00 43 100.3
20260505021104 15 170 1.6 3.2 0.00 0.00 0.00 43 100.3
20260505020104 15 191 0.0 1.6 0.00 0.00 0.00 43 100.3
20260505015104 15 185 1.6 4.8 0.00 0.00 0.00 42 100.3
20260505014104 15 135 0.0 1.6 0.00 0.00 0.00 43 100.2
20260505013104 16 174 1.6 6.4 0.00 0.00 0.00 42 100.2
20260505012104 16 195 1.6 3.2 0.00 0.00 0.00 41 100.2
20260505011104 16 166 1.6 3.2 0.00 0.00 0.00 40 100.2
20260505010104 17 153 0.0 1.6 0.00 0.00 0.00 39 100.1
20260505005104 17 190 1.6 3.2 0.00 0.00 0.00 38 100.1
20260505004104 18 176 1.6 4.8 0.00 0.00 0.00 38 100.1
20260505003104 18 188 1.6 4.8 0.00 0.00 0.00 39 100.1
20260505002104 19 178 1.6 3.2 0.00 0.00 0.00 39 100.1
20260505001104 19 170 3.2 4.8 0.00 0.00 0.00 38 100.1
20260505000104 20 149 3.2 4.8 0.00 0.00 0.00 38 100.0
20260504235104 21 127 1.6 3.2 0.00 0.00 0.00 39 100.0
20260504234104 21 168 3.2 4.8 0.00 0.00 0.00 38 100.0
20260504233104 22 129 1.6 3.2 0.00 0.00 0.00 38 100.0
20260504232104 22 154 0.0 4.8 0.00 0.00 0.00 38 100.0
20260504231104 22 140 1.6 4.8 0.00 0.00 0.00 37 100.0
20260504230104 23 137 1.6 1.6 0.00 0.00 0.00 38 99.9
20260504225104 23 162 1.6 4.8 0.00 0.00 0.00 38 99.9
20260504224104 24 170 3.2 6.4 0.00 0.00 0.00 37 99.9
20260504223104 24 146 3.2 4.8 0.00 0.00 0.00 37 99.9
20260504222104 25 179 1.6 4.8 0.00 0.00 0.00 37 99.9
20260504221104 25 149 3.2 4.8 0.00 0.00 0.00 38 99.8
20260504220104 25 139 1.6 4.8 0.00 0.00 0.00 40 99.8
20260504215104 25 170 1.6 3.2 0.00 0.00 0.00 40 99.8
20260504214104 26 162 3.2 4.8 0.00 0.00 0.00 40 99.8
20260504213104 26 117 1.6 4.8 0.00 0.00 0.00 40 99.8
20260504212104 26 148 1.6 1.6 0.00 0.00 0.00 41 99.8
20260504211104 27 111 1.6 3.2 0.00 0.00 0.00 39 99.8
20260504210104 27 86 1.6 4.8 0.00 0.00 0.00 36 99.8
20260504205104 27 55 3.2 6.4 0.00 0.00 0.00 36 99.8
20260504204104 27 96 1.6 3.2 0.00 0.00 0.00 36 99.8
20260504203104 27 86 1.6 4.8 0.00 0.00 0.00 36 99.8
20260504202104 27 80 3.2 6.4 0.00 0.00 0.00 37 99.8
20260504201104 27 46 3.2 4.8 0.00 0.00 0.00 37 99.8
20260504200104 27 62 3.2 8.0 0.00 0.00 0.00 37 99.8
20260504195104 27 44 3.2 6.4 0.00 0.00 0.00 37 99.8
20260504194104 27 53 3.2 6.4 0.00 0.00 0.00 37 99.8
20260504193104 27 96 1.6 3.2 0.00 0.00 0.00 37 99.9
20260504192104 26 54 3.2 6.4 0.00 0.00 0.00 37 99.8
20260504191104 26 82 1.6 3.2 0.00 0.00 0.00 39 99.8
20260504190104 26 51 1.6 6.4 0.00 0.00 0.00 38 99.9
20260504185104 26 58 3.2 6.4 0.00 0.00 0.00 38 99.9
20260504184104 27 79 1.6 4.8 0.00 0.00 0.00 38 99.9
20260504183104 27 53 1.6 4.8 0.00 0.00 0.00 37 99.9
20260504182104 26 59 4.8 8.0 0.00 0.00 0.00 38 99.9
20260504181104 26 114 1.6 4.8 0.00 0.00 0.00 40 99.9
20260504180104 26 65 3.2 3.2 0.00 0.00 0.00 39 99.9
20260504175104 26 69 1.6 4.8 0.00 0.00 0.00 39 99.9
20260504174104 26 52 3.2 4.8 0.00 0.00 0.00 39 99.9
20260504173104 25 47 3.2 4.8 0.00 0.00 0.00 39 99.9
20260504172104 25 45 4.8 6.4 0.00 0.00 0.00 39 99.9
20260504171104 25 58 3.2 4.8 0.00 0.00 0.00 39 99.9
20260504170104 25 36 3.2 4.8 0.00 0.00 0.00 41 99.9
20260504160104 22 33 1.6 4.8 0.00 0.00 0.00 45 100.0
20260504151104 21 1 1.6 3.2 0.00 0.00 0.00 44 100.0
20260504150104 21 3 3.2 4.8 0.00 0.00 0.00 44 100.1
20260504141104 18 45 1.6 4.8 0.00 0.00 0.00 49 100.1
20260504140104 18 36 1.6 3.2 0.00 0.00 0.00 53 100.1
20260504130104 12 34 0.0 1.6 0.00 0.00 0.00 65 100.1
20260504120104 6 313 0.0 0.0 0.00 0.00 0.00 78 100.2
20260504110104 5 190 0.0 0.0 0.00 0.00 0.00 81 100.2